Ephrata, WA

7:40 PM PDT on September 20, 2017 (GMT -0700)
Ephrata Municipal

Weather History for KEPH - August, 2013

Change the Weather History Date:

Tuesday, August 6, 2013

  Actual Average Record
Temperature  
Mean Temperature 80 °F 75 °F  
Max Temperature 95 °F 90 °F 103 °F (1972)
Min Temperature 65 °F 61 °F 46 °F (2002)
Degree Days  
Heating Degree Days 0 0  
Month to date heating degree days 0 0  
Since 1 June heating degree days 58 68  
Since 1 July heating degree days 0 8  
Cooling Degree Days 15 10  
Month to date cooling degree days 55 64  
Year to date cooling degree days 672 504  
Since 1 June cooling degree days 615 467  
Growing Degree Days 30 (Base 50)    
Moisture  
Dew Point 46 °F    
Average Humidity 34    
Maximum Humidity 53    
Minimum Humidity 14    
Precipitation  
Precipitation 0.00 in 0.01 in 0.09 in (2004)
Month to date precipitation 0.10 0.05  
Year to date precipitation 3.71 4.52  
Sea Level Pressure  
Sea Level Pressure 29.85 in    
Wind  
Wind Speed 7 mph (NE)    
Max Wind Speed 16 mph    
Max Gust Speed 21 mph    
Visibility 10 miles    
Events      
T = Trace of Precipitation, MM = Missing Value Source: NWS Daily Summary

Daily Weather History Graph

Daily Weather History Graph

Search for Another Location

Airport or City:

Trip Planner

Search our weather history database for the weather conditions in past years. The results will help you decide how hot, cold, wet, or windy it might be!

Date:

Astronomy

Aug. 06, 2013 Rise Set
Actual Time 5:43 AM PDT 8:23 PM PDT
Civil Twilight 5:08 AM PDT 8:58 PM PDT
Nautical Twilight 4:24 AM PDT 9:42 PM PDT
Astronomical Twilight 3:32 AM PDT 10:33 PM PDT
Moon 5:43 AM PDT (8/6) 7:54 PM PDT (8/6)
Length of Visible Light 15h 50m
Length of Day
14h 40m
Waning Crescent, 0% of the Moon is Illuminated
Aug 6
Waning Crescent
Aug 6
New
Aug 14
First Quarter
Aug 20
Full
Aug 28
Last Quarter

Hourly Weather History & Observations

Time (PDT) Temp. Dew Point Humidity Pressure Visibility Wind Dir Wind Speed Gust Speed Precip Events Conditions
12:53 AM 75.9 °F 48.0 °F 37% 29.84 in 10.0 mi North 4.6 mph - N/A   Clear
1:53 AM 73.9 °F 50.0 °F 43% 29.85 in 10.0 mi NNE 8.1 mph - N/A   Clear
2:53 AM 73.9 °F 48.0 °F 40% 29.85 in 10.0 mi NNW 9.2 mph - N/A   Clear
3:53 AM 66.9 °F 48.0 °F 51% 29.86 in 10.0 mi NE 3.5 mph - N/A   Clear
4:53 AM 70.0 °F 48.0 °F 46% 29.86 in 10.0 mi NW 6.9 mph - N/A   Scattered Clouds
5:53 AM 66.0 °F 48.9 °F 54% 29.88 in 10.0 mi ENE 4.6 mph - N/A   Scattered Clouds
6:53 AM 70.0 °F 48.9 °F 47% 29.88 in 10.0 mi NNE 4.6 mph - N/A   Mostly Cloudy
7:53 AM 70.0 °F 51.1 °F 51% 29.90 in 10.0 mi ENE 6.9 mph - N/A   Partly Cloudy
8:53 AM 77.0 °F 50.0 °F 39% 29.91 in 10.0 mi NNE 8.1 mph - N/A   Clear
9:53 AM 81.0 °F 50.0 °F 34% 29.91 in 10.0 mi NE 4.6 mph - N/A   Clear
10:53 AM 84.9 °F 50.0 °F 30% 29.90 in 10.0 mi East 5.8 mph - N/A   Clear
11:53 AM 88.0 °F 48.0 °F 25% 29.89 in 10.0 mi Calm Calm - N/A   Clear
12:53 PM 90.0 °F 52.0 °F 27% 29.88 in 10.0 mi South 13.8 mph - N/A   Clear
1:53 PM 91.9 °F 46.0 °F 21% 29.87 in 10.0 mi South 8.1 mph 18.4 mph N/A   Clear
2:53 PM 93.0 °F 42.1 °F 17% 29.85 in 10.0 mi South 11.5 mph 17.3 mph N/A   Clear
3:53 PM 93.9 °F 42.1 °F 17% 29.83 in 10.0 mi South 10.4 mph 18.4 mph N/A   Clear
4:53 PM 95.0 °F 39.0 °F 14% 29.82 in 10.0 mi SSW 10.4 mph 16.1 mph N/A   Clear
5:53 PM 93.9 °F 39.9 °F 15% 29.80 in 10.0 mi South 6.9 mph - N/A   Clear
6:53 PM 91.9 °F 41.0 °F 17% 29.79 in 10.0 mi South 9.2 mph - N/A   Clear
7:53 PM 86.0 °F 41.0 °F 20% 29.78 in 10.0 mi South 6.9 mph - N/A   Clear
8:53 PM 81.0 °F 43.0 °F 26% 29.79 in 10.0 mi Calm Calm - N/A   Clear
9:53 PM 82.0 °F 44.1 °F 26% 29.80 in 10.0 mi West 3.5 mph - N/A   Clear
10:53 PM 75.0 °F 42.1 °F 31% 29.81 in 10.0 mi NNW 3.5 mph - N/A   Clear
11:53 PM 79.0 °F 42.1 °F 27% 29.80 in 10.0 mi NW 12.7 mph - N/A   Clear